Theta_e
348 348 348 347 346 344 344 341 340 342 342 340 341 341 341 341 342 341 340 338 337 339 342 342 340 338 339 341 343 343 342 342 341 342 342 343 345 345 345 345 346 345
349 349 349 348 348 346 345 344 343 343 343 342 341 341 342 342 343 344 343 341 338 337 339 339 338 336 337 338 339 341 341 340 338 338 338 340 343 345 345 346 346 345
349 349 349 349 349 348 346 346 345 345 344 343 343 342 342 342 343 344 344 343 340 337 337 337 337 336 336 338 339 340 341 339 337 336 337 338 341 343 345 346 345 344
350 350 350 350 350 349 347 347 346 346 345 344 344 343 342 342 342 343 344 343 341 339 338 338 338 337 337 339 340 341 340 340 338 337 337 337 339 341 343 345 345 344
351 350 351 351 351 350 349 348 347 347 346 345 344 343 343 342 341 342 344 343 342 341 341 340 340 339 338 339 340 341 341 340 339 339 338 337 337 339 341 343 344 345
351 351 351 350 350 351 350 349 348 347 347 347 346 345 343 342 342 341 342 343 343 343 343 342 341 340 339 340 341 342 341 340 341 340 339 338 337 338 338 340 342 344
350 351 351 351 349 349 350 349 348 347 347 346 347 346 345 344 342 342 341 342 342 342 343 344 343 342 342 342 343 342 342 342 341 340 340 338 337 338 338 338 340 342
349 350 351 351 350 348 348 349 347 346 345 346 346 347 346 345 344 343 342 341 341 342 343 343 343 343 343 343 344 344 344 344 344 343 342 341 340 339 338 338 339 341
348 349 349 350 350 347 346 346 346 345 344 344 345 345 347 346 345 344 343 343 342 342 343 343 342 342 343 343 344 344 344 343 344 344 343 343 342 341 339 338 339 339
346 348 347 348 348 347 346 346 346 346 346 345 344 344 345 346 346 346 344 343 343 343 343 342 342 342 342 343 344 343 343 342 342 343 343 343 344 343 342 341 340 340
346 347 348 348 348 348 348 347 348 348 348 347 345 344 344 344 345 345 345 344 343 343 343 342 342 341 341 342 343 342 342 342 342 343 342 343 343 343 343 343 342 342
345 346 349 350 350 350 350 349 350 350 349 348 346 345 345 344 344 344 344 345 344 343 343 343 342 342 341 342 342 341 341 341 342 342 342 343 343 344 344 344 344 344
345 347 350 352 351 352 352 352 352 352 350 349 348 346 345 344 344 343 343 343 343 344 344 343 343 343 343 343 343 342 341 340 341 342 341 342 343 344 345 345 345 345
348 350 352 353 351 352 352 352 352 351 351 350 350 349 347 345 344 343 343 342 343 344 344 344 344 344 344 344 343 343 342 342 343 342 342 342 343 343 343 344 344 345
350 352 352 352 353 352 354 354 353 353 351 350 350 350 349 348 346 344 344 343 343 344 345 344 344 344 344 344 344 343 343 343 344 344 344 343 343 342 342 342 342 343
350 350 350 351 353 353 352 351 350 348 346 346 347 348 349 349 349 347 346 345 344 344 345 345 344 344 344 343 343 343 343 344 344 345 345 344 343 343 343 342 342 341
349 350 351 351 353 352 350 348 346 344 344 345 347 347 347 348 349 350 350 348 347 346 345 345 345 344 344 343 343 343 343 344 345 344 344 344 343 343 343 343 342 343
349 350 350 350 351 350 350 349 348 346 345 345 346 347 348 348 347 349 350 350 350 349 348 347 346 345 344 343 344 344 345 346 345 344 344 344 344 343 343 343 343 344
351 350 350 349 350 349 349 349 348 346 344 344 345 347 348 348 347 348 350 349 348 348 348 349 348 347 346 346 346 346 347 347 346 345 344 344 343 344 343 342 343 343
350 349 348 348 349 348 347 346 345 345 344 344 345 345 345 346 346 348 350 349 347 345 344 344 346 346 347 347 347 347 346 347 345 344 344 343 343 343 343 343 343 344
348 348 347 347 347 345 344 343 343 343 344 343 344 343 343 343 345 347 348 348 347 346 344 343 343 345 347 348 347 347 346 346 346 345 345 345 343 343 342 342 343 344
348 348 346 345 344 343 343 343 343 343 343 345 346 346 345 345 345 346 346 346 347 346 346 345 344 345 347 347 346 346 346 347 347 346 345 344 344 343 341 339 341 344
345 344 343 343 342 343 344 345 345 344 345 347 349 349 348 348 347 346 346 347 347 347 347 347 346 346 348 347 345 345 346 347 347 345 344 343 343 344 344 344 346 346
338 338 341 343 343 344 346 347 347 346 347 348 350 350 350 349 348 348 347 347 347 347 348 347 347 347 348 347 345 344 344 345 345 345 345 345 345 346 347 347 348 348
336 340 343 344 345 345 346 346 346 346 348 349 350 349 349 347 346 346 346 346 346 347 347 347 347 347 347 347 345 344 343 344 345 346 346 346 346 347 347 347 347 348
339 344 344 345 346 346 346 346 346 346 347 348 348 347 346 345 344 343 343 343 343 343 343 343 344 344 345 345 345 344 345 345 346 346 347 347 347 346 346 346 346 347
Wind_Speed
19 19 19 19 20 21 22 24 25 23 21 20 19 18 17 16 15 15 17 19 21 25 26 24 22 20 19 18 17 17 17 17 18 18 19 20 19 18 18 17 17 16
21 19 19 20 20 20 21 23 25 25 23 21 20 19 17 17 16 15 15 16 19 23 26 26 24 23 21 20 20 19 19 18 18 18 19 20 20 19 18 17 16 17
25 23 21 20 20 20 21 22 24 26 25 23 22 21 19 18 17 16 15 16 17 20 23 24 24 23 22 21 21 21 20 20 19 19 19 20 21 20 19 18 18 18
26 25 23 21 20 20 21 21 23 25 26 26 25 23 21 20 19 18 17 16 17 18 20 21 22 22 21 20 20 21 21 21 19 19 20 21 21 22 21 20 20 19
23 23 22 22 21 20 21 22 23 24 26 27 28 26 24 23 22 21 20 18 17 17 17 18 19 20 20 20 20 21 22 22 20 20 21 22 22 22 22 22 22 21
22 22 22 21 21 21 22 22 23 24 25 26 27 28 28 26 24 23 22 21 19 18 18 17 17 18 19 20 20 21 22 22 22 21 22 23 22 22 23 24 24 23
22 22 22 21 21 21 22 22 23 24 25 26 27 28 29 28 27 25 24 23 22 21 20 19 17 16 17 18 18 20 20 21 22 22 23 23 23 23 23 24 25 25
21 21 21 21 21 21 22 22 23 23 24 26 27 28 28 29 29 28 26 25 23 23 22 21 19 17 16 16 17 18 18 19 19 20 22 22 22 22 22 23 25 25
20 20 20 21 21 22 22 22 22 22 22 24 27 29 30 29 30 30 28 27 25 24 24 23 21 19 17 17 18 18 19 19 19 20 21 21 21 21 21 22 23 25
18 19 19 20 21 22 22 21 21 21 21 22 24 27 30 31 31 31 30 29 27 25 25 25 23 21 20 20 19 19 19 19 19 20 21 21 21 21 21 21 22 23
17 19 20 20 20 21 21 20 20 20 21 22 23 24 27 29 31 32 32 31 30 28 27 26 25 23 22 21 20 20 20 20 20 20 21 22 22 22 22 22 22 22
17 20 21 20 19 19 20 20 20 20 20 21 22 23 25 27 30 32 33 33 32 30 28 26 25 24 23 22 20 20 21 22 22 22 22 22 23 23 23 23 23 23
16 20 22 20 18 17 18 19 19 20 20 20 20 20 22 24 26 29 31 32 32 31 29 27 25 25 24 23 22 21 22 23 23 23 23 23 23 22 22 23 23 24
16 18 20 19 16 15 16 17 18 19 19 18 17 17 18 20 22 24 27 29 31 31 30 29 27 26 25 24 24 24 24 24 23 24 24 25 25 25 24 25 24 24
15 16 17 17 16 15 16 17 17 18 17 16 16 15 15 16 17 19 22 25 28 29 30 30 29 28 28 27 27 27 27 26 25 24 24 24 26 27 27 28 27 27
15 15 15 17 17 16 15 16 16 15 15 14 13 13 14 15 16 17 18 21 24 26 28 29 30 30 30 30 29 29 29 29 27 25 23 22 23 25 26 28 28 28
15 15 15 16 17 16 15 15 13 13 13 13 11 12 13 14 16 17 17 17 19 22 25 27 30 31 32 33 31 30 30 30 30 30 29 27 26 25 26 27 28 29
15 15 15 16 16 15 16 15 14 14 14 13 12 12 13 13 14 16 17 16 16 19 22 24 27 30 31 30 29 29 29 30 31 33 33 32 31 29 28 28 29 30
14 14 15 15 15 14 15 16 16 16 14 13 12 12 13 14 14 15 17 18 18 18 20 22 23 25 26 27 28 29 29 30 31 33 34 34 35 34 33 32 32 32
12 13 13 14 14 14 14 14 15 14 13 12 12 12 13 14 14 15 17 19 19 18 18 19 19 20 22 25 27 29 30 31 32 32 33 35 36 36 35 35 34 34
12 12 12 13 14 14 14 13 13 13 13 14 14 14 14 15 17 18 19 20 20 19 19 19 18 19 21 22 23 24 26 27 28 28 28 29 30 30 30 31 32 33
13 13 13 13 13 14 14 13 14 14 14 15 15 16 16 17 18 20 20 20 21 21 22 22 21 21 22 22 23 23 25 26 26 27 28 28 28 28 28 28 29 30
12 13 13 13 14 14 13 14 14 14 14 14 15 16 17 18 19 19 19 20 20 21 22 22 21 21 22 23 24 25 25 26 26 27 28 29 29 29 29 29 29 30
12 13 12 12 12 12 12 12 12 11 11 12 14 15 15 16 16 16 16 17 17 18 19 19 20 20 21 23 24 25 25 26 26 27 28 29 30 30 29 29 30 30
11 11 10 10 10 10 10 10 10 9 10 11 12 12 12 12 12 12 12 12 12 14 15 16 17 17 18 20 22 23 24 24 25 26 27 28 29 29 30 31 31 31
9 9 8 7 7 7 9 9 9 9 10 11 11 11 10 10 10 10 10 10 10 11 12 13 14 15 15 16 18 20 21 22 22 24 25 26 27 28 29 30 30 29
Wind_Direction
232 229 228 227 227 229 229 228 226 225 225 224 224 223 222 220 222 227 231 234 234 232 230 232 238 241 241 239 237 236 236 239 243 247 250 252 255 260 262 262 261 262
235 236 234 232 230 229 229 228 228 228 228 228 227 228 227 224 223 227 233 234 234 232 232 236 241 243 244 243 243 242 242 245 247 250 253 254 254 257 260 260 260 262
233 239 239 237 234 231 230 230 229 229 230 231 230 230 230 227 225 228 233 234 233 232 233 236 240 242 244 246 247 246 247 249 251 253 255 255 254 254 256 257 260 262
230 235 240 242 240 237 234 233 232 230 230 231 231 231 232 230 228 229 231 232 230 229 231 236 239 241 243 246 247 247 248 250 253 256 256 255 254 253 253 254 257 260
226 229 235 238 240 240 238 235 234 233 231 231 232 232 233 233 232 231 230 230 229 227 228 233 237 239 241 244 245 246 248 251 256 260 260 258 256 256 255 254 255 258
225 226 229 231 234 237 239 238 236 235 234 233 233 233 234 235 235 234 233 232 232 230 229 231 234 237 239 242 244 246 249 254 258 261 262 261 260 259 258 256 255 255
227 229 229 229 230 233 237 240 240 238 237 235 234 234 234 235 237 237 236 235 236 234 231 230 233 237 240 242 245 248 252 256 260 261 262 263 263 262 259 257 256 255
229 233 234 231 231 232 235 238 241 241 239 237 234 233 233 235 236 238 239 239 239 237 233 231 233 236 240 244 247 251 255 259 262 263 262 263 264 263 261 258 257 257
230 234 237 236 233 233 234 235 239 241 241 239 236 234 233 234 235 237 239 240 241 239 235 234 235 236 239 245 250 254 257 259 262 264 263 263 264 266 265 262 260 260
233 233 237 238 236 234 235 235 237 239 241 241 239 236 234 234 235 236 238 240 241 240 237 237 239 239 239 244 248 253 258 260 261 263 264 264 265 267 267 265 262 263
240 236 236 238 237 235 236 237 237 238 239 240 240 239 237 235 235 235 237 239 241 242 241 240 242 243 243 244 246 252 257 259 260 262 265 267 269 270 270 267 264 263
244 238 235 237 239 239 238 240 241 241 241 240 239 240 240 239 237 236 236 238 240 242 243 243 244 246 247 248 251 256 259 259 259 262 265 267 268 269 269 268 265 263
247 241 237 240 244 245 245 246 246 246 244 243 242 241 242 242 240 238 236 237 239 240 241 243 245 247 249 252 257 261 263 262 263 265 267 267 267 267 268 268 267 266
251 248 247 249 249 246 247 249 250 252 253 253 253 250 248 247 243 240 237 236 237 238 240 242 245 247 250 253 258 262 264 264 266 270 272 270 268 267 268 270 271 271
251 253 255 256 252 246 251 261 269 274 276 276 271 264 261 257 250 244 238 236 237 238 241 243 246 248 251 255 259 262 263 264 269 275 278 278 276 273 271 271 272 274
253 257 260 262 262 261 268 279 287 291 291 285 274 267 266 264 258 250 242 238 239 240 242 244 247 249 252 254 257 259 260 262 265 267 270 272 273 272 270 268 269 272
257 260 261 265 269 269 272 278 282 284 282 275 265 263 266 264 260 256 249 243 242 243 245 246 247 249 251 253 255 258 259 260 261 261 262 262 263 266 266 263 262 265
255 257 260 265 269 269 269 271 273 274 272 264 256 255 256 255 257 261 261 256 250 247 248 248 249 250 251 253 254 256 258 259 260 261 264 265 266 270 272 268 264 264
252 257 261 265 268 269 268 268 268 269 267 262 257 255 255 254 255 261 267 264 258 254 252 252 251 252 252 251 251 251 253 256 258 260 264 267 269 271 274 273 268 266
258 262 262 259 259 260 262 263 264 266 268 268 265 262 262 264 263 263 264 262 259 257 256 255 256 257 257 256 255 254 256 258 260 262 264 267 269 271 273 274 271 268
264 261 255 250 249 252 257 261 263 264 266 267 268 269 272 273 270 266 264 261 260 259 259 257 258 261 263 264 263 262 261 261 263 264 266 268 269 270 272 274 274 272
263 260 254 251 252 255 259 262 262 264 267 269 270 272 271 269 266 263 262 262 262 262 262 261 260 262 264 265 264 263 263 264 265 265 266 268 269 270 272 275 277 275
254 255 254 255 259 262 264 265 267 270 272 270 267 264 262 260 260 260 260 261 262 262 263 263 262 263 265 265 263 263 265 267 267 267 268 268 268 270 272 274 274 273
240 247 253 258 263 267 271 274 276 277 275 270 266 264 262 260 259 259 259 259 260 260 262 262 262 262 263 264 264 265 267 267 267 268 268 268 269 270 272 274 273 272
232 243 249 255 263 271 276 278 278 275 271 267 265 264 263 262 261 262 263 263 261 259 257 258 258 256 256 260 264 267 269 269 268 268 269 271 272 273 274 275 273 272
228 239 243 246 253 264 269 270 267 264 260 259 259 261 265 270 274 278 282 283 280 276 272 270 268 265 261 261 266 270 273 273 273 274 275 276 276 276 275 274 273 272